CES7630 ZUXC-PHNL

Flight info

Callsign CES7630
Flight time N/A
Altitude 35100
Route BOPTU W162 KAKMI W144 IGNAK W179 WFX B213 ESPEG V154 SNF W269 OLPOV B213 WHA R343 PK A593 AKARA/K0907F351 A593 LAMEN/N0491F351 A593 SADLI Y590 BEDAR Y591 FUE Y23 KASTE Y81 TASOT Y57 LIGNI Y816 IPROS Y830 LAPIL OTR13 SEALS DCT 34N153E DCT 34N159E DCT 33N166E DCT 31N173E DCT 29N179E DCT 27N174W DCT 25N168W DCT CANON DCT CANON
Aircraft MD11/H-SDE1E2E3FGHIJ2J3J4J5M1RWXY/LB1D1

Departure

Time 2026-04-25 14:00
Airport Xichang Qingshan Airport (ZUXC)

Arrival

Time N/A
Airport Daniel K. Inouye International Airport (PHNL)
Time Latitude Longitude Altitude Speed Heading
2026-04-25 13:39 27.98292 102.18647 5084 ft 0 kts 88°
2026-04-25 13:50 27.98292 102.18631 5086 ft 4 kts 90°
2026-04-25 13:51 27.98287 102.18600 5088 ft 4 kts 48°
2026-04-25 13:51 27.98266 102.18585 5089 ft 4 kts
2026-04-25 13:51 27.98247 102.18585 5093 ft 0 kts 359°
2026-04-25 13:53 27.98252 102.18585 5091 ft 2 kts 359°
2026-04-25 13:53 27.98283 102.18587 5093 ft 7 kts
2026-04-25 13:53 27.98342 102.18588 5083 ft 10 kts 359°
2026-04-25 13:54 27.98425 102.18585 5086 ft 14 kts 358°
2026-04-25 13:54 27.98531 102.18581 5086 ft 17 kts 358°
2026-04-25 13:54 27.98655 102.18577 5086 ft 19 kts 358°
2026-04-25 13:54 27.98796 102.18572 5086 ft 21 kts 358°
2026-04-25 13:55 27.98946 102.18566 5086 ft 22 kts 358°
2026-04-25 13:55 27.99100 102.18560 5087 ft 22 kts 358°
2026-04-25 13:55 27.99257 102.18553 5087 ft 23 kts 358°
2026-04-25 13:55 27.99419 102.18548 5087 ft 24 kts 358°
2026-04-25 13:56 27.99583 102.18541 5087 ft 24 kts 358°
2026-04-25 13:56 27.99753 102.18535 5090 ft 25 kts 358°
2026-04-25 13:56 27.99933 102.18528 5089 ft 26 kts 358°
2026-04-25 13:56 28.00099 102.18522 5089 ft 24 kts 358°
2026-04-25 13:57 28.00263 102.18515 5089 ft 23 kts 358°
2026-04-25 13:57 28.00372 102.18510 5089 ft 24 kts 358°
2026-04-25 13:57 28.00482 102.18501 5090 ft 7 kts 338°
2026-04-25 13:57 28.00489 102.18489 5090 ft 0 kts 294°
2026-04-25 13:58 28.00490 102.18487 5090 ft 1 kts 294°
2026-04-25 13:58 28.00498 102.18458 5091 ft 7 kts 284°
2026-04-25 13:58 28.00502 102.18394 5091 ft 9 kts 265°
2026-04-25 13:58 28.00457 102.18371 5091 ft 8 kts 179°
2026-04-25 13:59 28.00434 102.18372 5091 ft 13 kts 179°
2026-04-25 13:59 28.00071 102.18386 5092 ft 89 kts 178°
2026-04-25 13:59 27.99237 102.18425 5092 ft 151 kts 177°
2026-04-25 13:59 27.98032 102.18473 5129 ft 187 kts 178°
2026-04-25 14:00 27.97586 102.18469 5197 ft 193 kts 177°
2026-04-25 14:00 27.95324 102.18504 6191 ft 191 kts 170°
2026-04-25 14:00 27.93991 102.18607 6785 ft 192 kts 169°
2026-04-25 14:00 27.92648 102.18713 7348 ft 195 kts 169°
2026-04-25 14:01 27.91294 102.18813 7892 ft 196 kts 169°
2026-04-25 14:01 27.89908 102.18787 8365 ft 207 kts 182°
2026-04-25 14:01 27.88436 102.18348 8535 ft 230 kts 192°
2026-04-25 14:01 27.86874 102.17740 8775 ft 240 kts 189°
2026-04-25 14:02 27.85266 102.17636 9135 ft 227 kts 159°
2026-04-25 14:02 27.83938 102.18443 9491 ft 213 kts 128°
2026-04-25 14:02 27.83023 102.19747 9843 ft 212 kts 120°
2026-04-25 14:02 27.82734 102.20207 9962 ft 213 kts 120°
2026-04-25 14:03 27.81261 102.22452 10703 ft 215 kts 121°
2026-04-25 14:03 27.80457 102.23864 11135 ft 217 kts 113°
2026-04-25 14:03 27.79882 102.25482 11250 ft 227 kts 102°
2026-04-25 14:03 27.79678 102.27288 11401 ft 242 kts 88°
2026-04-25 14:04 27.79975 102.29239 11537 ft 265 kts 72°
2026-04-25 14:04 27.80734 102.31241 11698 ft 290 kts 66°
2026-04-25 14:04 27.81675 102.33363 11864 ft 314 kts 65°
2026-04-25 14:04 27.82707 102.35631 12085 ft 332 kts 64°
2026-04-25 14:05 27.83769 102.37957 12760 ft 336 kts 64°
2026-04-25 14:05 27.84836 102.40308 13537 ft 337 kts 65°
2026-04-25 14:05 27.85902 102.42668 14298 ft 336 kts 64°
2026-04-25 14:05 27.86960 102.45023 15112 ft 336 kts 64°
2026-04-25 14:06 27.88013 102.47376 15857 ft 336 kts 63°
2026-04-25 14:06 27.89069 102.49734 16536 ft 336 kts 63°
2026-04-25 14:06 27.90129 102.52095 17227 ft 337 kts 62°
2026-04-25 14:06 27.91176 102.54423 17936 ft 337 kts 61°
2026-04-25 14:07 27.92246 102.56797 18608 ft 339 kts 60°
2026-04-25 14:07 27.93320 102.59179 19289 ft 341 kts 59°
2026-04-25 14:07 27.94402 102.61577 19907 ft 344 kts 58°
2026-04-25 14:07 27.95494 102.63998 20471 ft 347 kts 58°
2026-04-25 14:08 27.96593 102.66437 21013 ft 349 kts 57°
2026-04-25 14:08 27.97700 102.68895 21470 ft 353 kts 56°
2026-04-25 14:08 27.98818 102.71378 21989 ft 356 kts 56°
2026-04-25 14:08 27.99945 102.73883 22449 ft 359 kts 56°
2026-04-25 14:09 28.01081 102.76413 22947 ft 362 kts 56°
2026-04-25 14:09 28.02224 102.78959 23413 ft 365 kts 56°
2026-04-25 14:09 28.03380 102.81536 23850 ft 369 kts 56°
2026-04-25 14:09 28.03774 102.82414 24013 ft 370 kts 57°
2026-04-25 14:10 28.05723 102.86762 24661 ft 375 kts 57°
2026-04-25 14:10 28.06893 102.89382 25034 ft 367 kts 57°
2026-04-25 14:10 28.08032 102.91942 25359 ft 363 kts 56°
2026-04-25 14:10 28.09171 102.94495 25503 ft 364 kts 56°
2026-04-25 14:11 28.10315 102.97053 25521 ft 363 kts 57°
2026-04-25 14:11 28.11454 102.99602 25503 ft 362 kts 56°
2026-04-25 14:11 28.12589 103.02145 25507 ft 362 kts 56°
2026-04-25 14:11 28.13726 103.04689 25761 ft 362 kts 57°
2026-04-25 14:12 28.14858 103.07229 26353 ft 361 kts 57°
2026-04-25 14:12 28.15987 103.09766 26914 ft 360 kts 57°
2026-04-25 14:12 28.17116 103.12300 27439 ft 359 kts 57°
2026-04-25 14:12 28.18239 103.14825 28019 ft 358 kts 57°
2026-04-25 14:13 28.19358 103.17342 28564 ft 357 kts 57°
2026-04-25 14:13 28.20474 103.19852 29065 ft 357 kts 57°
2026-04-25 14:13 28.21585 103.22355 29634 ft 355 kts 57°
2026-04-25 14:13 28.22693 103.24851 30146 ft 354 kts 57°
2026-04-25 14:14 28.23796 103.27340 30650 ft 353 kts 56°
2026-04-25 14:14 28.24897 103.29822 31142 ft 352 kts 56°
2026-04-25 14:14 28.25995 103.32299 31603 ft 351 kts 56°
2026-04-25 14:14 28.27085 103.34771 32029 ft 350 kts 57°
2026-04-25 14:15 28.28173 103.37250 32328 ft 351 kts 57°
2026-04-25 14:15 28.28538 103.38083 32504 ft 350 kts 56°
2026-04-25 14:15 28.30343 103.42193 33094 ft 349 kts 56°
2026-04-25 14:15 28.31430 103.44662 33384 ft 349 kts 57°
2026-04-25 14:16 28.32512 103.47120 33725 ft 348 kts 56°
2026-04-25 14:16 28.33591 103.49569 34103 ft 346 kts 56°
2026-04-25 14:16 28.34664 103.52007 34474 ft 344 kts 56°
2026-04-25 14:16 28.35728 103.54425 34843 ft 341 kts 56°
2026-04-25 14:17 28.36794 103.56843 34983 ft 345 kts 56°
2026-04-25 14:17 28.38598 103.60930 35026 ft 350 kts 57°
2026-04-25 14:18 28.40758 103.65852 35028 ft 344 kts 56°
2026-04-25 14:18 28.42896 103.70727 35024 ft 345 kts 57°
2026-04-25 14:19 28.45035 103.75604 35025 ft 345 kts 57°
2026-04-25 14:19 28.47169 103.80479 35038 ft 345 kts 56°
2026-04-25 14:20 28.49313 103.85376 35030 ft 345 kts 57°
2026-04-25 14:20 28.51444 103.90258 35030 ft 345 kts 57°
2026-04-25 14:21 28.53571 103.95137 35029 ft 344 kts 57°
2026-04-25 14:21 28.55696 104.00015 35023 ft 344 kts 56°
2026-04-25 14:22 28.57826 104.04915 35023 ft 347 kts 57°
2026-04-25 14:22 28.59942 104.09834 35039 ft 345 kts 57°
2026-04-25 14:23 28.62056 104.14735 35031 ft 345 kts 57°
2026-04-25 14:23 28.64345 104.19489 35020 ft 339 kts 50°
2026-04-25 14:24 28.67376 104.23462 35026 ft 333 kts 38°
2026-04-25 14:24 28.71172 104.26424 35022 ft 330 kts 26°
2026-04-25 14:25 28.75472 104.28251 35028 ft 332 kts 15°
2026-04-25 14:25 28.80077 104.28868 35032 ft 337 kts
2026-04-25 14:26 28.84785 104.28632 35028 ft 339 kts
2026-04-25 14:26 28.89494 104.28308 35029 ft 339 kts
2026-04-25 14:27 28.94204 104.28018 35029 ft 339 kts
2026-04-25 14:27 28.98912 104.27748 35027 ft 339 kts
2026-04-25 14:28 29.03622 104.27484 35029 ft 339 kts
2026-04-25 14:28 29.08330 104.27222 35030 ft 339 kts
2026-04-25 14:29 29.13037 104.26960 35028 ft 339 kts
2026-04-25 14:29 29.17747 104.26698 35029 ft 339 kts
2026-04-25 14:30 29.22455 104.26436 35030 ft 339 kts
2026-04-25 14:30 29.29480 104.26469 35029 ft 334 kts 11°
2026-04-25 14:31 29.34072 104.27235 35029 ft 333 kts 12°
2026-04-25 14:31 29.38659 104.28045 35029 ft 333 kts 12°
2026-04-25 14:32 29.43249 104.28841 35028 ft 334 kts 12°
2026-04-25 14:32 29.47839 104.29628 35030 ft 334 kts 12°
2026-04-25 14:33 29.52429 104.30413 35030 ft 333 kts 12°
2026-04-25 14:33 29.57019 104.31198 35028 ft 333 kts 12°
2026-04-25 14:34 29.61577 104.31978 35029 ft 333 kts 12°
2026-04-25 14:34 29.66198 104.32769 35027 ft 333 kts 12°
2026-04-25 14:35 29.70758 104.33550 35026 ft 334 kts 12°
2026-04-25 14:35 29.75348 104.34338 35029 ft 334 kts 12°
2026-04-25 14:36 29.79941 104.35126 35028 ft 334 kts 12°
2026-04-25 14:36 29.84531 104.35915 35029 ft 334 kts 12°
2026-04-25 14:37 29.89123 104.36704 35030 ft 334 kts 12°
2026-04-25 14:37 29.93716 104.37495 35029 ft 334 kts 12°
2026-04-25 14:38 29.98308 104.38286 35027 ft 334 kts 12°
2026-04-25 14:38 30.02898 104.39078 35029 ft 333 kts 12°
2026-04-25 14:39 30.07485 104.39870 35030 ft 333 kts 12°
2026-04-25 14:39 30.12076 104.40665 35027 ft 333 kts 12°
2026-04-25 14:40 30.16661 104.41466 35027 ft 333 kts 12°
2026-04-25 14:40 30.21251 104.42270 35029 ft 333 kts 12°
2026-04-25 14:41 30.25837 104.43073 35028 ft 333 kts 12°
2026-04-25 14:41 30.30395 104.43872 35029 ft 333 kts 12°
2026-04-25 14:42 30.34238 104.44546 35029 ft 333 kts 12°
2026-04-25 14:42 30.39572 104.45483 35028 ft 333 kts 12°
2026-04-25 14:43 30.44158 104.46289 35029 ft 333 kts 12°
2026-04-25 14:43 30.48740 104.47109 35029 ft 333 kts 13°
2026-04-25 14:44 30.53187 104.48498 35028 ft 330 kts 23°
2026-04-25 14:44 30.57208 104.51050 35029 ft 331 kts 34°
2026-04-25 14:45 30.60599 104.54695 35029 ft 336 kts 46°
2026-04-25 14:45 30.63183 104.59272 35029 ft 344 kts 57°
2026-04-25 14:46 30.64859 104.64555 35029 ft 352 kts 65°
2026-04-25 14:46 30.66212 104.70037 35030 ft 353 kts 65°
2026-04-25 14:47 30.67339 104.74589 35030 ft 353 kts 65°
2026-04-25 14:47 30.68950 104.80975 35028 ft 353 kts 65°
2026-04-25 14:48 30.70339 104.86440 35029 ft 353 kts 65°
2026-04-25 14:48 30.71728 104.91902 35029 ft 353 kts 65°
2026-04-25 14:49 30.73117 104.97370 35026 ft 353 kts 65°
2026-04-25 14:49 30.74503 105.02838 35031 ft 353 kts 65°
2026-04-25 14:50 30.75877 105.08270 35032 ft 353 kts 65°
2026-04-25 14:50 30.77258 105.13739 35030 ft 352 kts 65°
2026-04-25 14:51 30.78635 105.19203 35030 ft 352 kts 65°
2026-04-25 14:51 30.80011 105.24672 35031 ft 353 kts 65°
2026-04-25 14:52 30.81386 105.30150 35029 ft 353 kts 65°
2026-04-25 14:52 30.82537 105.34742 35027 ft 353 kts 65°
2026-04-25 14:53 30.84124 105.41115 35028 ft 353 kts 66°
2026-04-25 14:53 30.85343 105.46671 35030 ft 355 kts 67°
2026-04-25 14:54 30.86515 105.52251 35031 ft 355 kts 67°
2026-04-25 14:54 30.87692 105.57833 35031 ft 355 kts 67°
2026-04-25 14:55 30.88873 105.63417 35030 ft 355 kts 67°
2026-04-25 14:55 30.90052 105.68996 35029 ft 355 kts 67°
2026-04-25 14:56 30.91231 105.74581 35027 ft 355 kts 67°
2026-04-25 14:56 30.92407 105.80165 35031 ft 355 kts 67°
2026-04-25 14:57 30.93582 105.85755 35029 ft 355 kts 68°
2026-04-25 14:57 30.94752 105.91339 35033 ft 355 kts 67°
2026-04-25 14:58 30.95922 105.96931 35029 ft 355 kts 68°
2026-04-25 14:58 30.96932 106.02592 35029 ft 362 kts 73°
2026-04-25 14:59 30.97347 106.08480 35027 ft 366 kts 76°
2026-04-25 14:59 30.97658 106.14397 35027 ft 366 kts 76°
2026-04-25 15:00 30.97984 106.20309 35027 ft 365 kts 76°
2026-04-25 15:00 30.98322 106.26219 35029 ft 366 kts 76°
2026-04-25 15:01 30.98663 106.32132 35029 ft 365 kts 76°
2026-04-25 15:01 30.99002 106.38040 35029 ft 366 kts 76°
2026-04-25 15:02 30.99339 106.43953 35029 ft 366 kts 76°
2026-04-25 15:02 30.99673 106.49865 35029 ft 366 kts 76°
2026-04-25 15:03 31.00002 106.55740 35025 ft 366 kts 76°
2026-04-25 15:03 31.00331 106.61656 35023 ft 366 kts 76°
2026-04-25 15:04 31.00656 106.67571 35023 ft 366 kts 76°
2026-04-25 15:04 31.00980 106.73494 35030 ft 366 kts 76°
2026-04-25 15:05 31.01300 106.79408 35028 ft 366 kts 76°
2026-04-25 15:06 31.01723 106.87286 35027 ft 366 kts 76°
2026-04-25 15:06 31.02037 106.93202 35029 ft 366 kts 76°
2026-04-25 15:07 31.02393 107.00132 35028 ft 366 kts 77°
2026-04-25 15:07 31.02633 107.05097 35030 ft 366 kts 77°
2026-04-25 15:08 31.02927 107.10983 35029 ft 366 kts 77°
2026-04-25 15:08 31.03227 107.16910 35029 ft 366 kts 76°
2026-04-25 15:09 31.03527 107.22830 35027 ft 366 kts 77°
2026-04-25 15:09 31.03973 107.31713 35034 ft 366 kts 77°
2026-04-25 15:10 31.04267 107.37643 35026 ft 366 kts 77°
2026-04-25 15:11 31.04647 107.46542 35035 ft 367 kts 78°
2026-04-25 15:11 31.04821 107.52504 35024 ft 368 kts 78°
2026-04-25 15:12 31.05007 107.61447 35031 ft 368 kts 78°
2026-04-25 15:12 31.05106 107.66402 35030 ft 368 kts 78°
2026-04-25 15:13 31.05297 107.76367 35026 ft 368 kts 78°
2026-04-25 15:14 31.05409 107.82327 35034 ft 368 kts 78°
2026-04-25 15:14 31.05522 107.88323 35028 ft 369 kts 78°
2026-04-25 15:15 31.05628 107.94297 35027 ft 368 kts 78°
2026-04-25 15:15 31.05734 108.00264 35027 ft 368 kts 78°
2026-04-25 15:16 31.05837 108.06235 35038 ft 369 kts 79°
2026-04-25 15:16 31.05987 108.15199 35030 ft 368 kts 79°
2026-04-25 15:17 31.06131 108.24159 35022 ft 369 kts 79°
2026-04-25 15:18 31.06222 108.30100 35022 ft 369 kts 79°
2026-04-25 15:18 31.06355 108.39058 35032 ft 369 kts 79°
2026-04-25 15:19 31.06427 108.44068 35025 ft 369 kts 79°
2026-04-25 15:19 31.06522 108.51015 35023 ft 369 kts 79°
2026-04-25 15:20 31.06602 108.56988 35026 ft 369 kts 79°
2026-04-25 15:20 31.06679 108.62967 35031 ft 369 kts 79°
2026-04-25 15:21 31.06735 108.68959 35027 ft 369 kts 79°
2026-04-25 15:21 31.06790 108.74948 35024 ft 369 kts 79°
2026-04-25 15:22 31.06853 108.80931 35032 ft 369 kts 79°
2026-04-25 15:22 31.06918 108.86911 35030 ft 369 kts 79°
2026-04-25 15:23 31.06982 108.92901 35024 ft 369 kts 79°
2026-04-25 15:23 31.07042 108.98882 35032 ft 370 kts 79°
2026-04-25 15:24 31.07099 109.04877 35016 ft 369 kts 79°
2026-04-25 15:24 31.07144 109.09851 35030 ft 370 kts 79°
2026-04-25 15:25 31.07205 109.16849 35032 ft 369 kts 79°
2026-04-25 15:25 31.07255 109.22799 35030 ft 370 kts 79°
2026-04-25 15:26 31.07300 109.28787 35036 ft 370 kts 79°
2026-04-25 15:26 31.07344 109.34775 35031 ft 369 kts 79°
2026-04-25 15:27 31.07386 109.40769 35025 ft 370 kts 79°
2026-04-25 15:28 31.07442 109.49774 35038 ft 370 kts 79°
2026-04-25 15:28 31.07476 109.55791 35042 ft 372 kts 79°
2026-04-25 15:29 31.07503 109.61798 35032 ft 370 kts 79°
2026-04-25 15:29 31.07506 109.67795 35031 ft 370 kts 80°
2026-04-25 15:29 31.07307 109.70822 35029 ft 381 kts 89°
2026-04-25 15:30 31.06688 109.73863 35031 ft 389 kts 95°
2026-04-25 15:30 31.04981 109.79924 35032 ft 395 kts 97°
2026-04-25 15:31 31.03200 109.85980 35027 ft 394 kts 97°
2026-04-25 15:31 31.01467 109.92025 35027 ft 393 kts 97°
2026-04-25 15:32 30.99758 109.98078 35028 ft 393 kts 97°
2026-04-25 15:32 30.98054 110.04124 35027 ft 393 kts 97°
2026-04-25 15:33 30.95492 110.13194 35027 ft 393 kts 97°
2026-04-25 15:33 30.93779 110.19247 35028 ft 394 kts 97°
2026-04-25 15:34 30.92062 110.25294 35032 ft 394 kts 97°
2026-04-25 15:34 30.90911 110.29343 35027 ft 394 kts 97°
2026-04-25 15:35 30.87757 110.40409 35025 ft 393 kts 97°
2026-04-25 15:36 30.85172 110.49449 35027 ft 394 kts 97°
2026-04-25 15:36 30.83441 110.55489 35030 ft 394 kts 97°
2026-04-25 15:37 30.81717 110.61491 35030 ft 393 kts 97°
2026-04-25 15:37 30.79964 110.67517 35025 ft 392 kts 97°
2026-04-25 15:38 30.78212 110.73531 35031 ft 394 kts 97°
2026-04-25 15:38 30.76464 110.79565 35038 ft 394 kts 97°
2026-04-25 15:39 30.74716 110.85600 35030 ft 394 kts 97°
2026-04-25 15:39 30.72966 110.91631 35031 ft 394 kts 97°
2026-04-25 15:40 30.71793 110.95668 35030 ft 394 kts 97°
2026-04-25 15:40 30.69456 111.03695 35028 ft 394 kts 97°
2026-04-25 15:41 30.67698 111.09720 35029 ft 394 kts 97°
2026-04-25 15:41 30.65938 111.15741 35030 ft 394 kts 97°
2026-04-25 15:42 30.64172 111.21768 35030 ft 394 kts 97°
2026-04-25 15:42 30.62786 111.27808 35026 ft 375 kts 83°
2026-04-25 15:43 30.62818 111.30773 35024 ft 362 kts 74°
2026-04-25 15:43 30.63155 111.33648 35032 ft 359 kts 71°
2026-04-25 15:43 30.64019 111.39350 35029 ft 359 kts 71°
2026-04-25 15:44 30.64848 111.45074 35025 ft 360 kts 71°
2026-04-25 15:44 30.65432 111.50879 35031 ft 365 kts 76°
2026-04-25 15:45 30.65746 111.56777 35030 ft 366 kts 77°
2026-04-25 15:45 30.65938 111.60725 35027 ft 366 kts 77°
2026-04-25 15:46 30.66328 111.68579 35030 ft 366 kts 77°
2026-04-25 15:46 30.66626 111.74485 35029 ft 366 kts 77°
2026-04-25 15:47 30.66925 111.80382 35027 ft 366 kts 77°
2026-04-25 15:47 30.67223 111.86243 35031 ft 366 kts 77°
2026-04-25 15:48 30.67520 111.92146 35030 ft 366 kts 77°
2026-04-25 15:48 30.67844 111.98042 35027 ft 365 kts 76°
2026-04-25 15:49 30.68240 112.03912 35031 ft 365 kts 75°
2026-04-25 15:49 30.68647 112.09787 35027 ft 365 kts 75°
2026-04-25 15:50 30.69051 112.15657 35029 ft 365 kts 76°
2026-04-25 15:50 30.69452 112.21534 35028 ft 365 kts 76°
2026-04-25 15:51 30.69718 112.25461 35029 ft 365 kts 76°
2026-04-25 15:51 30.70244 112.33287 35027 ft 365 kts 76°
2026-04-25 15:52 30.70636 112.39163 35027 ft 365 kts 76°
2026-04-25 15:52 30.71025 112.45038 35030 ft 365 kts 76°
2026-04-25 15:53 30.71347 112.49925 35030 ft 365 kts 76°
2026-04-25 15:53 30.71732 112.55806 35028 ft 365 kts 76°
2026-04-25 15:54 30.72114 112.61688 35029 ft 365 kts 76°
2026-04-25 15:54 30.72493 112.67567 35028 ft 365 kts 76°
2026-04-25 15:55 30.72870 112.73450 35029 ft 365 kts 76°
2026-04-25 15:55 30.73304 112.80287 35027 ft 365 kts 76°
2026-04-25 15:56 30.73675 112.86174 35028 ft 365 kts 76°
2026-04-25 15:56 30.73984 112.91103 35030 ft 365 kts 76°
2026-04-25 15:57 30.74331 112.96995 35028 ft 365 kts 76°
2026-04-25 15:57 30.74680 113.02889 35030 ft 365 kts 76°
2026-04-25 15:58 30.75035 113.08776 35030 ft 365 kts 76°
2026-04-25 15:58 30.75366 113.14674 35030 ft 367 kts 77°
2026-04-25 15:59 30.75547 113.20610 35028 ft 368 kts 78°
2026-04-25 15:59 30.75695 113.26560 35030 ft 368 kts 78°
2026-04-25 16:00 30.75819 113.31499 35029 ft 368 kts 78°
2026-04-25 16:00 30.75995 113.38411 35029 ft 368 kts 78°
2026-04-25 16:01 30.76146 113.44394 35029 ft 368 kts 78°
2026-04-25 16:01 30.76293 113.50341 35029 ft 368 kts 78°
2026-04-25 16:02 30.76437 113.56244 35028 ft 368 kts 78°
2026-04-25 16:02 30.76579 113.62191 35027 ft 368 kts 78°
2026-04-25 16:03 30.76715 113.68011 35030 ft 368 kts 78°
2026-04-25 16:03 30.76852 113.73959 35028 ft 368 kts 78°
2026-04-25 16:04 30.76986 113.79908 35029 ft 368 kts 78°
2026-04-25 16:04 30.77117 113.85855 35030 ft 368 kts 78°
2026-04-25 16:05 30.77244 113.91715 35028 ft 368 kts 78°
2026-04-25 16:06 30.77435 114.00641 35028 ft 368 kts 78°
2026-04-25 16:06 30.77629 114.06485 35028 ft 367 kts 77°
2026-04-25 16:07 30.77859 114.12222 35028 ft 367 kts 77°
2026-04-25 16:07 30.78108 114.18143 35027 ft 365 kts 76°
2026-04-25 16:07 30.78481 114.21017 35027 ft 354 kts 66°
2026-04-25 16:08 30.79188 114.23644 35032 ft 349 kts 62°
2026-04-25 16:08 30.80947 114.28892 35029 ft 348 kts 60°
2026-04-25 16:09 30.82695 114.34107 35030 ft 349 kts 61°
2026-04-25 16:09 30.84421 114.39383 35031 ft 349 kts 61°
2026-04-25 16:10 30.86104 114.44585 35027 ft 349 kts 62°
2026-04-25 16:10 30.87817 114.49869 35029 ft 349 kts 61°
2026-04-25 16:11 30.89507 114.55068 35030 ft 349 kts 61°
2026-04-25 16:11 30.91224 114.60355 35028 ft 349 kts 61°
2026-04-25 16:12 30.92938 114.65641 35029 ft 349 kts 61°
2026-04-25 16:12 30.94651 114.70929 35029 ft 349 kts 62°
2026-04-25 16:13 30.96361 114.76219 35029 ft 349 kts 62°
2026-04-25 16:13 30.98068 114.81508 35030 ft 349 kts 62°
2026-04-25 16:14 30.99775 114.86805 35027 ft 349 kts 62°
2026-04-25 16:14 31.01469 114.92070 35030 ft 349 kts 62°
2026-04-25 16:15 31.03162 114.97373 35030 ft 349 kts 62°
2026-04-25 16:15 31.04867 115.02716 35030 ft 349 kts 62°
2026-04-25 16:16 31.06560 115.08019 35027 ft 348 kts 61°
2026-04-25 16:16 31.08236 115.13268 35031 ft 348 kts 62°
2026-04-25 16:17 31.09929 115.18572 35028 ft 349 kts 62°
2026-04-25 16:17 31.11615 115.23891 35028 ft 349 kts 62°
2026-04-25 16:18 31.13296 115.29203 35026 ft 349 kts 62°
2026-04-25 16:18 31.15009 115.34500 35027 ft 349 kts 61°
2026-04-25 16:19 31.16725 115.39792 35029 ft 348 kts 61°
2026-04-25 16:19 31.18442 115.45090 35034 ft 349 kts 61°
2026-04-25 16:20 31.21014 115.53045 35029 ft 349 kts 62°
2026-04-25 16:21 31.23581 115.61004 35041 ft 350 kts 62°
2026-04-25 16:21 31.25295 115.66333 35027 ft 350 kts 62°
2026-04-25 16:22 31.27007 115.71663 35033 ft 350 kts 62°
2026-04-25 16:22 31.28712 115.76983 35028 ft 349 kts 62°
2026-04-25 16:23 31.30403 115.82302 35029 ft 349 kts 62°
2026-04-25 16:23 31.32095 115.87622 35031 ft 349 kts 62°
2026-04-25 16:24 31.33818 115.92929 35028 ft 349 kts 61°
2026-04-25 16:24 31.35549 115.98229 35030 ft 349 kts 61°
2026-04-25 16:25 31.37280 116.03537 35032 ft 349 kts 61°
2026-04-25 16:25 31.39011 116.08851 35026 ft 350 kts 61°
2026-04-25 16:26 31.40742 116.14174 35026 ft 349 kts 61°
2026-04-25 16:26 31.42453 116.19447 35025 ft 349 kts 61°
2026-04-25 16:27 31.44176 116.24762 35028 ft 349 kts 61°
2026-04-25 16:27 31.45895 116.30075 35030 ft 349 kts 61°
2026-04-25 16:28 31.47613 116.35396 35030 ft 349 kts 61°
2026-04-25 16:28 31.49328 116.40713 35027 ft 349 kts 61°
2026-04-25 16:29 31.51041 116.46033 35030 ft 349 kts 62°
2026-04-25 16:29 31.52752 116.51357 35028 ft 349 kts 62°
2026-04-25 16:30 31.54171 116.55780 35029 ft 349 kts 62°
2026-04-25 16:30 31.56167 116.62010 35028 ft 349 kts 62°
2026-04-25 16:31 31.57871 116.67339 35030 ft 349 kts 62°
2026-04-25 16:31 31.59564 116.72639 35027 ft 349 kts 62°
2026-04-25 16:32 31.61263 116.77971 35030 ft 349 kts 62°
2026-04-25 16:32 31.62946 116.83323 35028 ft 349 kts 62°
2026-04-25 16:33 31.64629 116.88668 35030 ft 349 kts 62°
2026-04-25 16:33 31.66317 116.94007 35030 ft 349 kts 62°
2026-04-25 16:34 31.68008 116.99356 35029 ft 349 kts 62°
2026-04-25 16:34 31.69672 117.04714 35029 ft 350 kts 62°
2026-04-25 16:35 31.71325 117.10086 35027 ft 350 kts 62°
2026-04-25 16:35 31.72977 117.15457 35030 ft 350 kts 62°
2026-04-25 16:36 31.74628 117.20829 35028 ft 350 kts 62°
2026-04-25 16:36 31.76277 117.26203 35030 ft 350 kts 62°
2026-04-25 16:37 31.77396 117.31835 35028 ft 366 kts 78°
2026-04-25 16:37 31.77141 117.37912 35031 ft 376 kts 84°
2026-04-25 16:38 31.76633 117.44037 35029 ft 376 kts 84°
2026-04-25 16:38 31.76164 117.50157 35030 ft 376 kts 84°
2026-04-25 16:39 31.75729 117.56269 35030 ft 375 kts 84°
2026-04-25 16:39 31.75303 117.62375 35029 ft 375 kts 84°
2026-04-25 16:40 31.74877 117.68483 35030 ft 375 kts 84°
2026-04-25 16:40 31.74448 117.74595 35030 ft 375 kts 84°
2026-04-25 16:41 31.74016 117.80712 35030 ft 375 kts 84°
2026-04-25 16:41 31.73361 117.89882 35029 ft 376 kts 84°
2026-04-25 16:42 31.72922 117.95993 35032 ft 375 kts 84°
2026-04-25 16:42 31.72554 118.01069 35027 ft 376 kts 84°
2026-04-25 16:43 31.72034 118.08217 35030 ft 376 kts 84°
2026-04-25 16:43 31.71662 118.13293 35029 ft 376 kts 84°
2026-04-25 16:44 31.71226 118.19409 35028 ft 375 kts 84°
2026-04-25 16:44 31.70798 118.25520 35028 ft 375 kts 84°
2026-04-25 16:45 31.70371 118.31628 35030 ft 375 kts 84°
2026-04-25 16:45 31.69942 118.37741 35030 ft 375 kts 84°
2026-04-25 16:46 31.69511 118.43848 35031 ft 376 kts 84°
2026-04-25 16:46 31.69158 118.48808 35027 ft 376 kts 84°